WNISAT-1

operational
NORAD ID: 39423 Int'l Des: 2013-066 Owner: WNI Country: J
LEORETROGRADE

WNISAT-1について

説明を読み込み中...

リアルタイム位置

3D地球を読み込み中...

次回通過

高度履歴

Altitude vs Time

uPlot chart will show altitude changes over time

軌道要素

1 39423U 13066H 26063.41466247 .00002726 00000-0 50436-3 0 9996
2 39423 97.7028 220.1086 0163199 201.4980 157.9315 14.57848583651464
Epoch: Mar 4, 2026 • Age: 18 hours

現在のステータス

高度 795.3 km
速度 7.42 km/s
衛星直下点 61.77°N, 126.14°E
打ち上げ日 Nov 21, 2013
運用期間 12.2 years
タイプ other

技術仕様

分類 Payload
質量 10.10 kg
乾燥質量 10.10 kg
総質量 10.10 kg
長さ 0.27 m
直径 0.27 m
スパン 0.27 m
形状 Box
製造者 AXEL
バスタイプ Yaiyo
フェーズステータス In Orbit
所有者/国 WNI/J

大規模コンステレーション

Loading constellations...